Wind_Speed
29 27 26 25 20 18 18 19 18 9 8 14 19 25 26 17 24 20 20 22 22 23 13 10 5 4 7 16 14 11 10 5 8 14 11 11 12 14 12 9 4 11 7 10
27 25 24 20 16 16 18 19 19 12 14 17 18 26 22 21 18 20 23 13 10 13 18 10 4 5 9 9 7 6 5 2 4 6 2 0 7 9 13 15 20 11 5 10
26 23 22 15 12 14 14 17 14 14 14 16 21 22 27 21 23 25 22 21 19 23 22 3 5 4 5 1 1 1 3 3 6 6 11 15 24 25 21 17 10 9 19 26
23 22 18 11 13 13 15 16 17 14 14 15 13 16 23 26 25 23 15 21 10 13 17 9 4 6 2 2 4 6 5 4 7 13 14 16 17 21 23 23 27 17 30 20
22 19 14 12 13 13 16 17 18 17 19 17 18 23 6 13 13 16 13 15 13 11 16 9 5 6 1 4 4 6 8 7 12 17 10 15 27 29 28 26 32 30 32 28
19 17 11 12 14 15 17 16 15 14 19 14 18 17 15 19 13 14 12 17 13 15 13 10 9 7 8 7 8 9 9 9 9 9 22 26 19 3 16 22 24 25 32 24
16 11 8 9 14 16 16 14 15 14 15 12 14 15 17 17 17 7 5 10 7 9 11 14 14 14 13 13 16 17 15 14 13 13 18 3 7 23 30 24 22 23 27 26
15 12 13 13 16 18 18 14 16 16 16 12 8 9 14 14 10 11 5 5 5 7 2 5 6 9 13 15 18 21 21 19 10 5 9 22 27 16 21 21 16 15 19 21
14 15 15 15 15 18 21 14 15 19 18 11 10 4 6 11 13 11 7 3 5 4 4 1 2 2 2 4 3 1 6 23 22 12 5 4 10 24 29 37 19 7 28 25
15 16 16 17 13 11 15 18 15 19 19 12 12 10 8 7 8 9 8 5 2 1 3 4 3 3 4 4 6 7 8 11 24 23 13 14 15 21 22 11 4 19 29 26
13 16 18 18 15 12 16 15 14 18 20 18 16 7 5 7 6 6 5 4 7 3 1 1 3 6 6 8 11 11 9 8 9 13 9 11 14 15 17 3 5 12 14 14
12 14 18 20 16 15 14 14 13 16 19 15 10 9 8 9 8 10 7 4 9 6 1 4 4 6 8 14 15 16 15 21 12 10 7 12 18 14 20 5 4 9 9 13
9 12 16 19 20 16 15 11 12 17 18 17 17 10 10 11 10 12 12 7 7 16 12 6 4 5 10 10 11 17 15 17 14 14 12 16 11 15 13 8 13 10 10 12
11 12 12 17 21 19 16 14 12 13 12 16 12 6 12 15 13 9 13 10 12 15 15 5 6 10 11 14 5 7 8 12 8 12 8 14 18 14 15 17 13 9 6 8
14 12 13 14 16 19 18 15 12 13 11 4 1 10 10 11 11 8 13 11 10 12 15 12 12 9 10 10 5 10 12 1 13 9 17 10 16 11 9 9 10 6 3 2
13 13 13 12 17 20 19 17 15 15 12 10 4 4 5 9 13 12 11 9 9 11 13 14 10 9 11 6 3 7 8 8 19 17 13 12 12 9 9 7 1 2 2 2
13 13 14 14 18 22 24 20 15 10 14 13 7 5 8 11 12 13 14 13 10 10 14 12 9 9 11 8 4 6 11 15 15 12 8 4 5 2 1 4 5 4 3 4
17 14 16 14 20 19 22 21 13 7 14 20 7 6 5 8 12 13 13 10 9 14 13 10 9 13 5 3 3 3 4 2 1 1 2 2 2 2 5 7 7 8 8 9
17 19 18 16 24 24 21 19 19 12 17 10 10 8 3 11 15 16 12 10 8 8 9 8 6 7 2 3 0 2 0 4 5 5 5 6 6 6 6 6 7 8 10 12
24 26 26 26 25 21 16 20 12 12 22 20 20 10 9 10 12 13 11 8 9 5 10 7 10 14 11 10 7 6 6 6 5 6 7 7 7 8 8 9 10 11 11 11
35 36 30 25 22 20 24 11 13 13 9 14 20 13 9 2 9 13 8 7 6 4 5 8 5 8 9 8 7 4 3 6 6 7 7 7 8 8 8 8 9 9 9 10
43 40 32 24 27 10 8 12 10 7 10 6 9 12 10 7 7 11 12 4 5 3 7 6 4 5 4 4 4 6 6 5 4 3 2 2 3 3 4 4 5 5 6 7
41 32 31 15 10 10 10 15 11 8 9 9 12 10 7 6 8 5 6 6 5 4 6 4 6 6 4 3 4 6 7 7 9 9 8 6 5 5 5 5 5 5 5 5
35 18 15 9 7 11 10 17 20 14 10 12 14 10 7 7 10 6 5 5 5 5 4 3 3 3 5 6 6 6 6 7 7 7 7 6 7 8 8 9 9 9 9 9
13 10 8 11 13 18 17 18 19 12 17 17 14 12 9 8 4 4 4 6 5 6 6 6 5 3 5 6 6 6 6 5 4 2 2 4 5 6 7 8 9 11 12 13
14 10 11 17 20 16 17 19 21 13 17 21 15 7 5 3 2 5 4 4 4 4 4 5 6 7 7 7 6 4 3 1 1 1 3 5 7 8 10 12 13 15 16 17
8 10 10 13 18 16 18 20 21 20 21 20 11 8 7 5 6 7 7 8 6 5 5 6 6 7 6 5 3 2 2 2 3 6 8 10 11 13 14 16 18 19 20 21
Wind_Direction
303 304 303 300 294 289 285 292 303 293 299 258 254 255 262 274 267 245 261 269 275 275 316 336 356 97 193 196 195 183 209 216 263 276 289 268 269 264 281 228 192 209 263 272
303 302 300 295 289 285 282 288 295 283 277 253 257 261 269 281 288 273 265 252 256 275 285 322 351 67 138 135 145 150 165 200 292 333 55 311 245 261 283 267 275 237 242 261
300 298 295 285 285 275 273 283 287 297 281 278 275 281 274 275 281 283 263 271 267 262 262 308 243 88 139 3 303 206 323 315 244 244 292 297 294 289 288 289 283 300 249 262
297 294 286 266 270 269 274 270 281 289 287 282 285 279 273 279 283 281 273 253 225 245 253 302 235 104 68 243 229 287 301 286 272 282 292 297 294 295 279 263 270 256 280 274
294 289 275 261 255 260 266 268 276 284 295 298 297 310 309 317 261 253 241 252 231 223 251 248 260 238 12 258 271 290 299 294 303 304 308 305 304 299 286 274 274 264 266 264
292 289 261 242 247 255 262 268 267 293 289 286 308 317 328 324 350 252 224 246 215 223 226 246 245 255 255 274 284 287 293 303 299 285 308 312 310 22 327 296 278 269 246 256
284 270 252 234 238 252 261 263 254 263 290 301 288 320 326 334 340 47 145 180 221 198 225 249 259 262 269 280 273 271 276 284 277 287 302 267 273 304 312 301 255 271 250 246
274 248 237 232 238 248 255 259 250 255 273 278 279 296 312 339 9 117 86 116 120 111 169 250 269 278 279 279 271 266 270 262 256 258 273 288 299 304 316 335 292 242 221 203
254 241 229 226 236 256 247 255 249 250 267 271 280 279 326 341 360 79 108 45 96 157 227 266 206 192 270 282 299 260 273 248 245 256 279 272 327 323 313 318 279 352 195 186
248 235 221 217 234 252 249 254 245 246 254 259 256 259 309 321 339 38 57 80 89 117 215 216 222 247 235 263 256 264 260 249 231 239 253 269 288 298 306 313 3 159 143 143
246 230 215 215 225 241 245 259 238 246 253 259 267 263 271 285 286 327 13 44 28 18 37 143 191 247 263 267 279 284 271 258 217 220 239 270 267 297 315 115 82 182 192 177
237 224 216 215 224 234 251 243 233 246 250 258 269 251 260 266 258 274 269 356 16 352 164 219 229 257 275 282 286 300 257 248 246 213 219 264 270 289 303 36 71 97 111 102
226 233 226 220 222 228 240 236 234 245 258 268 261 243 229 236 248 235 253 264 262 14 25 346 295 295 308 293 289 297 268 228 204 214 218 241 255 279 243 189 154 120 102 83
219 232 228 226 220 221 229 230 230 244 268 273 249 257 227 242 233 243 247 280 296 315 334 340 301 297 320 305 278 359 345 184 201 211 200 192 177 179 146 147 135 135 154 139
231 236 215 221 211 210 218 230 238 235 243 284 353 222 220 226 228 237 237 264 285 312 315 327 330 316 311 319 290 26 18 39 149 178 167 189 118 122 117 125 127 140 143 156
217 218 205 217 207 201 203 221 231 214 231 256 300 145 217 212 221 237 236 235 259 273 290 308 330 331 320 312 34 35 73 120 126 123 124 127 115 100 83 85 108 192 154 151
213 214 194 206 204 199 198 210 231 228 225 237 276 278 213 224 221 223 220 226 245 256 268 292 293 299 285 309 192 81 98 114 109 110 97 89 104 106 149 206 211 231 265 300
207 198 189 193 200 203 204 213 228 219 226 224 250 260 275 230 210 205 216 223 227 243 259 283 288 295 313 337 168 82 98 75 67 251 258 302 326 270 261 268 270 274 274 278
200 188 183 195 198 207 205 208 234 243 202 209 229 228 254 189 201 197 213 225 226 248 253 246 262 283 290 355 280 128 331 305 298 292 288 295 293 276 274 266 265 274 284 285
185 177 187 201 200 202 193 189 205 203 209 230 240 243 242 185 203 192 206 222 207 229 234 233 244 249 251 254 254 266 288 296 297 295 292 287 292 297 294 293 292 291 290 288
185 178 193 197 195 186 170 175 184 201 223 243 243 223 235 234 189 200 194 181 197 217 219 201 232 255 246 245 271 287 296 290 299 297 288 283 280 279 282 284 285 289 292 291
182 181 186 188 173 165 169 181 191 209 214 229 201 209 225 226 191 191 209 187 197 209 202 212 255 250 193 191 255 290 307 315 304 299 322 324 317 321 318 317 321 322 320 321
175 174 165 175 150 175 183 184 181 193 195 184 169 185 206 216 199 174 170 193 203 190 197 231 232 197 205 245 297 324 334 341 344 349 357 4 9 8 12 20 22 20 21 13
161 156 153 165 173 175 192 197 207 209 183 161 155 173 179 175 149 157 176 193 182 202 231 246 284 299 316 315 319 324 327 333 339 344 349 0 15 31 35 34 26 18 11 3
130 118 166 173 159 171 186 187 188 188 175 158 149 176 164 134 137 151 166 184 207 221 226 234 234 247 280 280 276 283 292 302 315 338 33 43 26 9 358 346 338 333 330 324
144 150 176 163 165 175 182 178 178 175 175 159 162 149 150 165 162 189 200 195 222 246 249 247 257 253 258 262 268 278 290 270 194 6 344 334 327 322 319 317 315 313 311 308
147 143 150 166 176 176 175 176 178 171 174 173 171 180 183 173 202 213 220 221 228 222 235 240 251 257 256 263 275 250 189 229 295 309 314 313 312 311 310 308 311 310 308 306
Height
3005 3002 3001 3000 2998 2995 2993 2993 2993 2992 2991 2992 2989 2988 2988 2990 2990 2993 2992 2992 2993 2992 2990 2984 2984 2981 2982 2986 2989 2993 2996 2999 2999 2997 2996 2996 2996 2996 2996 2993 2992 2991 2990 2981
2998 2996 2995 2994 2993 2991 2990 2989 2989 2990 2989 2988 2986 2986 2986 2986 2986 2988 2988 2991 2990 2989 2989 2988 2984 2983 2985 2986 2989 2993 2995 2998 2998 2994 2994 2994 2993 2993 2993 2991 2989 2987 2988 2978
2992 2991 2990 2990 2990 2988 2988 2988 2986 2987 2986 2985 2984 2984 2982 2981 2983 2981 2983 2983 2986 2988 2987 2984 2986 2983 2986 2988 2990 2993 2995 2996 2997 2997 2994 2993 2990 2990 2990 2990 2987 2982 2980 2977
2986 2985 2985 2986 2986 2985 2985 2985 2984 2984 2983 2983 2982 2982 2979 2978 2977 2976 2977 2978 2980 2983 2985 2983 2985 2982 2984 2987 2990 2992 2993 2993 2994 2992 2990 2989 2988 2986 2985 2984 2980 2980 2976 2974
2980 2980 2980 2982 2983 2982 2982 2982 2982 2981 2980 2981 2980 2979 2976 2973 2972 2972 2973 2974 2978 2980 2982 2983 2980 2982 2984 2988 2988 2988 2990 2991 2989 2987 2988 2987 2983 2979 2977 2977 2973 2974 2971 2971
2975 2975 2976 2978 2979 2980 2979 2980 2980 2979 2979 2980 2979 2976 2973 2968 2967 2967 2969 2970 2971 2973 2976 2977 2981 2982 2983 2984 2986 2987 2988 2988 2987 2986 2986 2982 2975 2971 2971 2970 2965 2964 2964 2965
2971 2971 2973 2975 2976 2976 2977 2977 2978 2978 2977 2978 2977 2975 2972 2968 2965 2961 2966 2967 2969 2973 2975 2976 2976 2976 2978 2982 2984 2985 2985 2987 2987 2984 2983 2979 2971 2968 2965 2959 2957 2956 2954 2957
2964 2967 2969 2971 2973 2973 2973 2975 2975 2975 2975 2976 2976 2975 2972 2967 2964 2964 2966 2967 2969 2971 2975 2976 2977 2978 2979 2980 2980 2980 2982 2984 2984 2983 2980 2971 2965 2965 2962 2957 2953 2948 2945 2948
2959 2961 2964 2966 2969 2969 2969 2971 2972 2972 2972 2973 2973 2975 2973 2969 2965 2966 2967 2969 2969 2972 2974 2975 2976 2977 2978 2978 2978 2978 2978 2980 2982 2982 2980 2973 2966 2964 2960 2957 2951 2942 2941 2946
2953 2956 2959 2962 2965 2966 2966 2967 2970 2969 2969 2971 2971 2971 2972 2971 2971 2970 2971 2971 2972 2972 2972 2974 2976 2977 2978 2977 2976 2975 2974 2974 2974 2977 2977 2969 2966 2963 2959 2957 2958 2949 2944 2945
2948 2951 2954 2958 2961 2963 2963 2964 2967 2967 2967 2968 2969 2970 2972 2972 2973 2972 2973 2973 2971 2971 2972 2974 2975 2975 2976 2974 2973 2972 2972 2971 2969 2971 2973 2968 2964 2963 2962 2960 2955 2952 2948 2950
2944 2947 2950 2954 2957 2959 2959 2961 2963 2963 2964 2965 2966 2969 2970 2970 2972 2972 2972 2974 2973 2973 2974 2974 2974 2974 2974 2972 2968 2967 2967 2966 2966 2968 2967 2963 2961 2962 2961 2958 2959 2957 2956 2956
2941 2944 2946 2949 2953 2955 2956 2958 2960 2960 2960 2962 2963 2966 2967 2969 2970 2972 2972 2974 2972 2972 2973 2974 2974 2973 2972 2969 2966 2962 2958 2957 2960 2963 2962 2962 2962 2961 2960 2959 2958 2959 2959 2960
2938 2941 2942 2945 2948 2952 2954 2956 2959 2960 2961 2960 2963 2962 2965 2966 2968 2970 2972 2973 2973 2974 2974 2973 2973 2972 2971 2968 2964 2961 2956 2956 2957 2959 2960 2960 2959 2959 2959 2959 2961 2962 2962 2962
2934 2937 2939 2942 2945 2949 2952 2954 2957 2958 2962 2960 2959 2961 2963 2964 2966 2969 2970 2972 2973 2973 2974 2973 2972 2971 2968 2966 2964 2961 2957 2953 2957 2959 2959 2962 2959 2962 2961 2962 2962 2963 2963 2963
2930 2934 2936 2939 2942 2946 2949 2953 2954 2956 2958 2960 2960 2961 2961 2962 2964 2966 2968 2970 2971 2972 2972 2971 2970 2969 2969 2965 2963 2963 2960 2957 2957 2960 2961 2962 2962 2963 2964 2963 2964 2964 2963 2963
2927 2931 2934 2937 2939 2942 2946 2950 2953 2955 2957 2958 2959 2958 2958 2959 2961 2964 2966 2968 2970 2971 2970 2970 2969 2968 2966 2964 2964 2963 2961 2962 2962 2962 2964 2965 2964 2965 2965 2966 2965 2964 2962 2961
2924 2928 2932 2935 2938 2942 2945 2948 2951 2953 2954 2956 2958 2957 2957 2957 2958 2962 2964 2966 2968 2969 2969 2969 2968 2967 2965 2965 2965 2965 2964 2964 2965 2965 2965 2965 2964 2964 2964 2963 2963 2963 2962 2961
2920 2926 2930 2933 2935 2938 2943 2948 2949 2951 2955 2954 2954 2955 2955 2956 2958 2960 2963 2965 2966 2968 2967 2967 2968 2966 2966 2966 2965 2965 2965 2965 2965 2965 2964 2963 2963 2962 2961 2961 2961 2961 2960 2959
2917 2922 2926 2929 2933 2938 2943 2946 2947 2949 2950 2950 2950 2953 2954 2956 2957 2960 2963 2963 2965 2965 2966 2965 2965 2964 2963 2963 2964 2964 2963 2963 2963 2962 2962 2961 2960 2958 2958 2957 2957 2957 2957 2956
2911 2916 2923 2928 2932 2937 2940 2943 2945 2946 2946 2945 2946 2950 2952 2954 2956 2958 2960 2961 2962 2962 2963 2964 2962 2959 2961 2961 2961 2962 2962 2962 2961 2960 2959 2958 2957 2956 2955 2954 2954 2953 2952 2951
2905 2912 2919 2926 2930 2934 2937 2939 2942 2941 2942 2942 2944 2948 2951 2953 2953 2956 2959 2959 2960 2960 2961 2961 2958 2958 2958 2959 2959 2958 2957 2958 2959 2958 2956 2955 2954 2953 2953 2952 2951 2950 2949 2948
2908 2917 2921 2922 2925 2929 2931 2932 2934 2937 2937 2939 2941 2946 2949 2951 2953 2954 2956 2957 2958 2959 2959 2957 2957 2956 2957 2956 2956 2956 2955 2953 2951 2950 2950 2950 2951 2951 2950 2949 2949 2948 2947 2946
2908 2913 2914 2918 2921 2924 2925 2928 2932 2936 2937 2939 2942 2946 2948 2949 2951 2952 2953 2954 2955 2955 2954 2953 2951 2951 2952 2952 2953 2953 2953 2952 2951 2951 2950 2949 2949 2948 2947 2947 2947 2946 2945 2944
2905 2910 2915 2916 2918 2920 2923 2927 2931 2934 2936 2939 2942 2946 2947 2948 2950 2950 2951 2952 2951 2951 2950 2951 2952 2953 2954 2954 2954 2954 2953 2953 2953 2953 2952 2952 2951 2951 2950 2949 2947 2946 2944 2943
2907 2911 2913 2914 2917 2919 2922 2926 2930 2933 2936 2939 2943 2945 2947 2948 2949 2949 2949 2950 2949 2949 2949 2951 2952 2952 2953 2953 2953 2953 2953 2953 2953 2953 2953 2952 2951 2950 2949 2947 2945 2943 2942 2940
2907 2909 2912 2913 2916 2919 2922 2925 2928 2932 2936 2940 2942 2944 2945 2947 2947 2947 2947 2947 2948 2949 2949 2950 2950 2951 2951 2951 2952 2952 2952 2952 2952 2952 2951 2950 2949 2947 2945 2943 2941 2939 2936 2934